SM4IVE-5 Odensbacken SE current weather conditions

sailwx.info

Wind from 252 at 13 knots gusting 26

Air temperature 15.0° C
Dewpoint 9.6° C

Last reported at 2019-Sep-15 11:00 UTC.
Time now 2019-Sep-15 12:06 UTC

Location: N 59°08' E 015°32'.
View on Google Maps.

See reports from other nearby stations

  
Tides and Currents Weather Stations Pressure Air Temp Water Temp Dewpoint Dewpoint Depression Visibility Wind Speed Wind Dir Waves Ship Positions
date/time (UTC)wind fromknots sea level pressurealtimeterstation pressurevisibilityair tempwater tempwave heightnotes
2019-Sep-15 11:00 252 13 gusting 26 15.0
2019-Sep-15 10:55 298 16 gusting 26 14.4
2019-Sep-15 10:50 246 8 gusting 22 14.4
2019-Sep-15 10:45 244 8 gusting 23 15.0
2019-Sep-15 10:40 207 13 gusting 23 15.0
2019-Sep-15 10:35 257 8 gusting 24 15.0
2019-Sep-15 10:30 223 11 gusting 27 15.0
2019-Sep-15 10:25 254 16 gusting 27 15.6
2019-Sep-15 10:20 242 15 gusting 26 15.6
2019-Sep-15 10:15 217 10 gusting 28 15.6
2019-Sep-15 10:10 246 18 gusting 28 15.6
2019-Sep-15 10:05 257 9 gusting 27 15.0
2019-Sep-15 10:00 238 16 gusting 27 15.0
2019-Sep-15 09:55 278 12 gusting 24 14.4
2019-Sep-15 09:50 182 8 gusting 24 13.9
2019-Sep-15 09:45 241 10 gusting 24 13.9
2019-Sep-15 09:40 197 9 gusting 19 13.9
2019-Sep-15 09:35 264 11 gusting 22 14.4
2019-Sep-15 09:30 234 11 gusting 22 14.4
2019-Sep-15 09:25 268 11 gusting 26 14.4
2019-Sep-15 09:20 251 12 gusting 26 14.4
2019-Sep-15 09:15 256 12 gusting 24 13.9
2019-Sep-15 09:10 234 9 gusting 25 13.9
2019-Sep-15 09:05 260 11 gusting 25 13.9
2019-Sep-15 09:00 195 12 gusting 25 13.9
2019-Sep-15 08:55 225 8 gusting 22 13.9
2019-Sep-15 08:50 306 7 gusting 25 13.9
2019-Sep-15 08:45 202 12 gusting 26 14.4
2019-Sep-15 08:40 252 13 gusting 26 14.4
2019-Sep-15 08:35 275 13 gusting 25 13.9
2019-Sep-15 08:30 267 8 gusting 30 13.9
2019-Sep-15 08:25 275 13 gusting 30 13.9
2019-Sep-15 08:20 254 14 gusting 26 14.4
2019-Sep-15 08:15 260 10 gusting 19 13.9
2019-Sep-15 08:10 258 8 gusting 17 13.9
2019-Sep-15 08:06 219 6 gusting 21 13.3
2019-Sep-15 08:00 253 8 gusting 22 13.3
2019-Sep-15 07:55 213 8 gusting 20 13.3
2019-Sep-15 07:50 212 6 gusting 18 13.3
2019-Sep-15 07:45 272 7 gusting 18 13.3
2019-Sep-15 07:40 229 5 gusting 18 13.9
2019-Sep-15 07:35 254 2 gusting 19 13.3
2019-Sep-15 07:30 254 8 gusting 20 13.3
2019-Sep-15 07:25 360 5 gusting 24 12.8
2019-Sep-15 07:20 208 8 gusting 19 12.8
2019-Sep-15 07:15 259 8 gusting 19 12.2
2019-Sep-15 07:10 227 6 gusting 15 12.2
2019-Sep-15 07:05 202 8 gusting 17 12.8
2019-Sep-15 07:00 256 6 gusting 17 12.8
2019-Sep-15 06:55 217 8 gusting 21 12.8
2019-Sep-15 06:50 233 8 gusting 21 12.8
2019-Sep-15 06:45 188 6 gusting 14 12.8
2019-Sep-15 06:40 200 4 gusting 18 12.8
2019-Sep-15 06:35 196 9 gusting 18 12.8
2019-Sep-15 06:30 215 5 gusting 14 12.8
2019-Sep-15 06:25 207 6 gusting 14 12.8
2019-Sep-15 06:20 225 6 gusting 17 12.8
2019-Sep-15 06:15 208 8 gusting 17 12.8
2019-Sep-15 06:10 232 5 gusting 14 12.8
2019-Sep-15 06:05 210 5 gusting 13 12.8
2019-Sep-15 06:00 233 6 gusting 18 12.8
2019-Sep-15 05:55 225 6 gusting 18 12.8
2019-Sep-15 05:50 210 4 gusting 12 12.8
2019-Sep-15 05:45 241 4 gusting 13 12.8
2019-Sep-15 05:40 209 5 gusting 15 12.8
2019-Sep-15 05:35 207 5 gusting 19 12.8
2019-Sep-15 05:30 360 6 gusting 19 12.2
2019-Sep-15 05:25 205 5 gusting 18 12.2
2019-Sep-15 05:20 214 7 gusting 18 12.2
2019-Sep-15 05:15 250 5 gusting 15 12.2
2019-Sep-15 05:10 243 5 gusting 16 12.2
2019-Sep-15 05:06 196 4 gusting 14 12.2
2019-Sep-15 05:00 216 3 gusting 14 12.2
2019-Sep-15 04:55 202 4 gusting 11 12.2
2019-Sep-15 04:50 209 3 gusting 16 12.2
2019-Sep-15 04:45 222 6 gusting 16 12.2
2019-Sep-15 04:40 223 4 gusting 15 12.2
2019-Sep-15 04:35 202 5 gusting 19 12.2
2019-Sep-15 04:30 207 6 gusting 19 12.2
2019-Sep-15 04:25 195 6 gusting 19 11.7
2019-Sep-15 04:20 215 4 gusting 19 11.7
2019-Sep-15 04:15 209 6 gusting 17 11.7
2019-Sep-15 04:10 215 5 gusting 19 11.7
2019-Sep-15 04:06 186 6 gusting 19 11.7
2019-Sep-15 04:00 199 5 gusting 13 11.7
2019-Sep-15 03:55 240 5 gusting 17 11.7
2019-Sep-15 03:50 204 6 gusting 16 11.7
2019-Sep-15 03:45 184 4 gusting 18 11.7
2019-Sep-15 03:40 194 5 gusting 18 11.7
2019-Sep-15 03:35 246 5 gusting 20 11.7
2019-Sep-15 03:30 202 7 gusting 20 11.7
2019-Sep-15 03:25 206 5 gusting 14 11.7
2019-Sep-15 03:20 187 5 gusting 14 11.7
2019-Sep-15 03:15 188 6 gusting 19 11.7
2019-Sep-15 03:10 232 7 gusting 19 11.7
2019-Sep-15 03:06 221 6 gusting 16 11.7
2019-Sep-15 03:00 211 6 gusting 14 11.1
2019-Sep-15 02:55 223 6 gusting 25 11.1
2019-Sep-15 02:50 204 6 gusting 21 11.1
2019-Sep-15 02:45 200 5 gusting 18 11.1
2019-Sep-15 02:40 237 7 gusting 19 11.1
2019-Sep-15 02:35 202 8 gusting 19 11.1
2019-Sep-15 02:30 213 5 gusting 18 11.1
2019-Sep-15 02:25 177 6 gusting 18 11.1
2019-Sep-15 02:20 198 4 gusting 17 11.1
2019-Sep-15 02:15 226 7 gusting 17 11.1
2019-Sep-15 02:05 256 3 gusting 20 11.1
2019-Sep-15 02:00 201 5 gusting 21 11.1
2019-Sep-15 01:55 205 7 gusting 22 11.1
2019-Sep-15 01:50 232 6 gusting 22 11.1
2019-Sep-15 01:45 189 2 gusting 17 11.1
2019-Sep-15 01:40 192 4 gusting 17 11.1
2019-Sep-15 01:35 184 4 gusting 18 11.1
2019-Sep-15 01:30 219 8 gusting 20 11.1
2019-Sep-15 01:25 206 6 gusting 20 11.1
2019-Sep-15 01:20 210 4 gusting 15 10.6
2019-Sep-15 01:15 360 6 gusting 19 10.6
2019-Sep-15 01:10 206 6 gusting 19 10.6
2019-Sep-15 01:05 209 4 gusting 15 10.6
2019-Sep-15 01:00 228 6 gusting 15 10.6
2019-Sep-15 00:55 217 6 gusting 17 10.6
2019-Sep-15 00:50 202 4 gusting 17 10.6
2019-Sep-15 00:45 192 8 gusting 20 10.6
2019-Sep-15 00:40 166 6 gusting 20 10.6
2019-Sep-15 00:35 209 7 gusting 20 10.6
2019-Sep-15 00:30 224 6 gusting 19 10.6
2019-Sep-15 00:25 202 6 gusting 25 10.6
2019-Sep-15 00:20 225 7 gusting 25 10.6
2019-Sep-15 00:15 202 6 gusting 20 10.6
2019-Sep-15 00:10 202 7 gusting 17 10.6
2019-Sep-15 00:06 222 3 gusting 10 10.6
2019-Sep-15 00:00 360 4 gusting 10 11.1
2019-Sep-14 23:55 200 2 gusting 8 10.6
2019-Sep-14 23:50 252 2 gusting 8 10.6
2019-Sep-14 23:45 217 3 gusting 13 11.1
2019-Sep-14 23:40 200 6 gusting 19 11.1
2019-Sep-14 23:35 192 3 gusting 19 11.1
2019-Sep-14 23:30 205 2 gusting 13 11.1
2019-Sep-14 23:25 191 6 gusting 13 11.1
2019-Sep-14 23:20 195 6 gusting 19 11.1
2019-Sep-14 23:15 181 4 gusting 19 11.1
2019-Sep-14 23:10 198 3 gusting 13 11.1
2019-Sep-14 23:05 240 5 gusting 10 11.1
2019-Sep-14 23:00 227 2 gusting 12 11.1
2019-Sep-14 22:55 221 5 gusting 12 11.1
2019-Sep-14 22:50 201 6 gusting 13 11.1
2019-Sep-14 22:45 196 3 gusting 13 11.1
2019-Sep-14 22:40 195 2 gusting 11 11.1
2019-Sep-14 22:35 192 2 gusting 10 11.1
2019-Sep-14 22:30 198 2 gusting 6 11.1
2019-Sep-14 22:25 188 11.1
2019-Sep-14 22:20 192 0 gusting 4 11.1
2019-Sep-14 22:15 223 0 gusting 8 11.1
2019-Sep-14 22:10 210 2 gusting 8 11.1
2019-Sep-14 22:06 194 3 gusting 8 11.1
2019-Sep-14 22:00 212 1 gusting 7 11.1
2019-Sep-14 21:55 192 2 gusting 12 11.1
2019-Sep-14 21:50 190 3 gusting 12 11.1
2019-Sep-14 21:45 239 0 gusting 8 11.1
2019-Sep-14 21:40 182 3 gusting 8 11.1
2019-Sep-14 21:35 204 2 gusting 7 11.1
2019-Sep-14 21:30 206 0 gusting 13 11.1
2019-Sep-14 21:25 161 1 gusting 13 11.1
2019-Sep-14 21:20 202 2 gusting 8 11.1
2019-Sep-14 21:15 204 2 gusting 8 11.1
2019-Sep-14 21:10 194 0 gusting 13 11.1
2019-Sep-14 21:05 199 4 gusting 13 11.1
2019-Sep-14 21:00 212 2 gusting 7 11.1
2019-Sep-14 20:55 204 0 gusting 8 11.1
2019-Sep-14 20:50 207 1 gusting 11 11.1
2019-Sep-14 20:45 225 3 gusting 11 11.1
2019-Sep-14 20:40 201 0 gusting 9 11.1
2019-Sep-14 20:35 195 3 gusting 8 11.1
2019-Sep-14 20:30 206 0 gusting 7 11.1
2019-Sep-14 20:25 208 1 gusting 8 11.1
2019-Sep-14 20:20 222 1 gusting 8 11.1
2019-Sep-14 20:15 222 1 gusting 10 11.1
2019-Sep-14 20:10 199 4 gusting 10 11.1
2019-Sep-14 20:05 189 3 gusting 8 11.1
2019-Sep-14 20:00 202 0 gusting 7 11.1
2019-Sep-14 19:55 194 11.1
2019-Sep-14 19:50 210 2 gusting 10 11.1
2019-Sep-14 19:45 203 2 gusting 10 11.1
2019-Sep-14 19:40 195 0 gusting 10 11.1
2019-Sep-14 19:35 236 1 gusting 10 11.1
2019-Sep-14 19:30 360 1 gusting 6 11.1
2019-Sep-14 19:25 203 1 gusting 4 11.1
2019-Sep-14 19:20 209 1 gusting 5 11.1
2019-Sep-14 19:15 212 0 gusting 7 11.1
2019-Sep-14 19:10 209 0 gusting 7 11.1
2019-Sep-14 19:05 163 0 gusting 6 11.1
2019-Sep-14 19:00 209 1 gusting 6 11.1
2019-Sep-14 18:55 223 2 gusting 6 11.1
2019-Sep-14 18:50 202 0 gusting 6 11.1
2019-Sep-14 18:45 234 1 gusting 9 11.1
2019-Sep-14 18:40 215 3 gusting 10 11.1
2019-Sep-14 18:35 244 2 gusting 13 11.1
2019-Sep-14 18:30 229 3 gusting 13 11.7
2019-Sep-14 18:25 360 3 gusting 8 11.7
2019-Sep-14 18:20 205 4 gusting 8 11.7
2019-Sep-14 18:15 213 1 gusting 6 11.7
2019-Sep-14 18:10 213 1 gusting 5 11.7
2019-Sep-14 18:05 218 11.7
2019-Sep-14 18:00 223 1 gusting 6 11.7
2019-Sep-14 17:55 236 0 gusting 6 11.7
2019-Sep-14 17:50 223 1 gusting 5 11.7
2019-Sep-14 17:45 360 1 gusting 6 11.7
2019-Sep-14 17:40 205 0 gusting 5 11.7
2019-Sep-14 17:35 222 1 gusting 6 12.2
2019-Sep-14 17:30 197 2 gusting 10 12.2
2019-Sep-14 17:25 221 4 gusting 10 12.2
2019-Sep-14 17:20 198 1 gusting 10 12.2
2019-Sep-14 17:15 191 2 gusting 10 12.2
2019-Sep-14 17:10 248 3 gusting 11 12.2
2019-Sep-14 17:05 207 3 gusting 9 12.2
2019-Sep-14 17:00 213 3 gusting 10 12.8
2019-Sep-14 16:55 216 2 gusting 8 12.8
2019-Sep-14 16:50 232 4 gusting 16 12.8
2019-Sep-14 16:45 195 6 gusting 16 12.8
2019-Sep-14 16:40 202 5 gusting 11 12.8
2019-Sep-14 16:35 218 2 gusting 11 12.8
2019-Sep-14 16:30 187 1 gusting 12 13.3
2019-Sep-14 16:25 211 5 gusting 16 13.3
2019-Sep-14 16:20 238 7 gusting 19 13.9
2019-Sep-14 16:15 207 7 gusting 17 14.4
2019-Sep-14 16:10 230 5 gusting 16 14.4
2019-Sep-14 16:05 195 6 gusting 16 14.4
2019-Sep-14 16:00 228 5 gusting 13 14.4
2019-Sep-14 15:55 243 3 gusting 8 14.4
2019-Sep-14 15:50 223 1 gusting 11 14.4
2019-Sep-14 15:45 236 2 gusting 11 14.4
2019-Sep-14 15:40 256 2 gusting 16 14.4
2019-Sep-14 15:35 211 5 gusting 16 15.0
2019-Sep-14 15:30 209 4 gusting 15 15.0
2019-Sep-14 15:25 201 5 gusting 17 15.0
2019-Sep-14 15:20 234 4 gusting 21 15.0
2019-Sep-14 15:15 255 6 gusting 21 15.0
2019-Sep-14 15:10 218 4 gusting 13 15.0
2019-Sep-14 15:06 269 3 gusting 13 15.0
2019-Sep-14 15:00 221 6 gusting 11 15.0
2019-Sep-14 14:55 205 4 gusting 13 15.0
2019-Sep-14 14:50 229 3 gusting 10 15.6
2019-Sep-14 14:45 240 4 gusting 12 15.6
2019-Sep-14 14:40 249 6 gusting 14 15.6
2019-Sep-14 14:35 230 6 gusting 16 15.6
2019-Sep-14 14:30 237 8 gusting 17 15.6
2019-Sep-14 14:25 248 6 gusting 17 15.6
2019-Sep-14 14:20 245 6 gusting 16 15.6
2019-Sep-14 14:15 221 7 gusting 18 15.6
2019-Sep-14 14:10 269 10 gusting 17 15.6
2019-Sep-14 14:05 259 8 gusting 19 15.6
2019-Sep-14 14:00 262 4 gusting 15 15.6
2019-Sep-14 13:55 246 6 gusting 15 15.6
2019-Sep-14 13:50 225 5 gusting 16 15.6
2019-Sep-14 13:45 246 8 gusting 17 15.6
2019-Sep-14 13:40 258 6 gusting 18 15.6
2019-Sep-14 13:35 209 6 gusting 18 15.6
2019-Sep-14 13:30 253 6 gusting 17 15.6
2019-Sep-14 13:25 278 7 gusting 16 15.6
2019-Sep-14 13:20 210 6 gusting 16 15.6
2019-Sep-14 13:15 208 6 gusting 16 15.6
2019-Sep-14 13:10 209 2 gusting 17 15.6
2019-Sep-14 13:06 242 6 gusting 17 15.6
2019-Sep-14 13:00 217 4 gusting 18 15.6
2019-Sep-14 12:55 270 5 gusting 18 15.6
2019-Sep-14 12:50 360 10 gusting 18 15.6
2019-Sep-14 12:45 277 10 gusting 18 16.1
2019-Sep-14 12:40 209 7 gusting 17 16.1
2019-Sep-14 12:35 238 7 gusting 17 16.1
2019-Sep-14 12:30 207 2 gusting 12 16.1
2019-Sep-14 12:25 259 4 gusting 12 16.1
2019-Sep-14 12:20 245 6 gusting 12 16.1
2019-Sep-14 12:15 208 4 gusting 12 16.1
2019-Sep-14 12:10 268 2 gusting 14 15.6
2019-Sep-14 12:05 211 3 gusting 14 15.6
2019-Sep-14 12:00 248 5 gusting 16 15.6
2019-Sep-14 11:55 291 4 gusting 16 15.6
2019-Sep-14 11:50 269 3 gusting 15 15.6
2019-Sep-14 11:45 240 6 gusting 15 15.6
2019-Sep-14 11:40 298 6 gusting 11 15.6
2019-Sep-14 11:35 210 3 gusting 12 15.0
2019-Sep-14 11:30 253 5 gusting 16 15.0
2019-Sep-14 11:25 257 7 gusting 15 15.6
2019-Sep-14 11:20 234 4 gusting 17 15.6
2019-Sep-14 11:15 242 7 gusting 17 15.6
2019-Sep-14 11:10 254 4 gusting 15 16.1
2019-Sep-14 11:06 254 3 gusting 15 16.1
2019-Sep-14 11:00 244 2 gusting 10 16.1
2019-Sep-14 10:55 276 4 gusting 17 16.1
2019-Sep-14 10:50 282 4 gusting 17 16.1
2019-Sep-14 10:45 286 3 gusting 17 16.1
2019-Sep-14 10:40 249 7 gusting 17 15.6
2019-Sep-14 10:35 269 4 gusting 15 15.6
2019-Sep-14 10:30 286 4 gusting 15 16.1
2019-Sep-14 10:25 279 7 gusting 18 16.1
2019-Sep-14 10:20 233 6 gusting 18 16.1
2019-Sep-14 10:15 284 6 gusting 14 16.1
2019-Sep-14 10:10 266 3 gusting 17 16.1
2019-Sep-14 10:06 233 7 gusting 17 16.1
2019-Sep-14 10:00 250 4 gusting 12 16.1
2019-Sep-14 09:55 288 4 gusting 12 15.6
2019-Sep-14 09:50 287 3 gusting 7 15.6
2019-Sep-14 09:45 287 4 gusting 14 15.6
2019-Sep-14 09:40 292 6 gusting 12 15.6
2019-Sep-14 09:35 252 5 gusting 10 15.6
2019-Sep-14 09:30 231 2 gusting 13 15.6
2019-Sep-14 09:25 294 3 gusting 14 15.0
2019-Sep-14 09:20 300 6 gusting 17 15.0
2019-Sep-14 09:15 250 6 gusting 13 14.4
2019-Sep-14 09:10 306 3 gusting 14 14.4
2019-Sep-14 09:06 263 4 gusting 15 13.9
2019-Sep-14 09:00 310 7 gusting 14 14.4
2019-Sep-14 08:55 278 6 gusting 14 14.4
2019-Sep-14 08:50 302 6 gusting 14 14.4
2019-Sep-14 08:45 250 4 gusting 12 14.4
2019-Sep-14 08:40 225 3 gusting 7 14.4
2019-Sep-14 08:35 222 2 gusting 10 13.9
2019-Sep-14 08:30 281 3 gusting 10 13.9
2019-Sep-14 08:25 275 1 gusting 10 13.3
2019-Sep-14 08:20 279 1 gusting 12 13.3
2019-Sep-14 08:15 267 4 gusting 12 13.3
2019-Sep-14 08:10 300 4 gusting 11 13.3
2019-Sep-14 08:05 286 1 gusting 10 12.8
2019-Sep-14 08:00 244 4 gusting 12 12.8
2019-Sep-14 07:55 248 4 gusting 12 12.2
2019-Sep-14 07:50 265 2 gusting 11 12.2
2019-Sep-14 07:45 234 2 gusting 15 12.2
2019-Sep-14 07:40 238 3 gusting 8 12.2
2019-Sep-14 07:35 248 2 gusting 11 12.2
2019-Sep-14 07:30 239 2 gusting 11 12.2
2019-Sep-14 07:25 219 2 gusting 7 12.2
2019-Sep-14 07:20 219 0 gusting 7 12.2
2019-Sep-14 07:15 254 0 gusting 12 11.7
2019-Sep-14 07:10 208 3 gusting 11 11.7
2019-Sep-14 07:05 259 4 gusting 12 11.7
2019-Sep-14 07:00 276 2 gusting 11 11.7
2019-Sep-14 06:55 231 0 gusting 12 11.7
2019-Sep-14 06:50 233 1 gusting 7 11.7
2019-Sep-14 06:45 265 2 gusting 7 11.7
2019-Sep-14 06:40 256 3 gusting 6 11.7
2019-Sep-14 06:35 246 1 gusting 12 11.7
2019-Sep-14 06:30 215 0 gusting 12 11.1
2019-Sep-14 06:25 218 1 gusting 13 11.1
2019-Sep-14 06:20 228 2 gusting 13 11.1
2019-Sep-14 06:15 245 2 gusting 7 10.6
2019-Sep-14 06:10 258 0 gusting 6 10.6
2019-Sep-14 06:05 218 1 gusting 6 10.6
2019-Sep-14 06:00 227 1 gusting 6 10.0
2019-Sep-14 05:55 207 1 gusting 5 10.0
2019-Sep-14 05:50 214 0 gusting 6 9.4
2019-Sep-14 05:45 230 0 gusting 6 8.9
2019-Sep-14 05:40 229 1 gusting 4 8.9
2019-Sep-14 05:35 219 1 gusting 3 8.3
2019-Sep-14 05:31 233 0 gusting 3 8.3
2019-Sep-14 05:25 253 1 gusting 3 7.8
2019-Sep-14 05:20 207 1 gusting 3 7.8
2019-Sep-14 05:15 253 0 gusting 2 7.2
2019-Sep-14 05:10 271 7.2
2019-Sep-14 05:06 241 7.2
2019-Sep-14 05:00 253 7.2
2019-Sep-14 04:55 232 7.2
2019-Sep-14 04:50 269 7.2
2019-Sep-14 04:45 265 0 gusting 2 7.2
2019-Sep-14 04:40 241 7.8
2019-Sep-14 04:35 246 1 gusting 9 7.8
2019-Sep-14 04:30 249 1 gusting 8 7.8
2019-Sep-14 04:25 285 0 gusting 4 7.8
2019-Sep-14 04:20 286 7.8
2019-Sep-14 04:15 285 0 gusting 8 7.8
2019-Sep-14 04:10 231 1 gusting 8 7.8
2019-Sep-14 04:05 233 0 gusting 10 7.8
2019-Sep-14 04:00 230 3 gusting 12 7.8
2019-Sep-14 03:55 232 4 gusting 12 7.8
2019-Sep-14 03:50 262 3 gusting 10 7.8
2019-Sep-14 03:45 259 0 gusting 8 7.8
2019-Sep-14 03:40 230 0 gusting 8 7.8
2019-Sep-14 03:35 209 0 gusting 8 8.3
2019-Sep-14 03:30 254 0 gusting 10 8.3
2019-Sep-14 03:25 258 3 gusting 10 8.3
2019-Sep-14 03:20 248 1 gusting 10 8.3
2019-Sep-14 03:15 253 0 gusting 13 8.3
2019-Sep-14 03:10 226 2 gusting 13 8.3
2019-Sep-14 03:06 229 1 gusting 11 8.3
2019-Sep-14 03:00 254 1 gusting 11 8.3
2019-Sep-14 02:55 246 1 gusting 4 8.3
2019-Sep-14 02:50 250 0 gusting 3 8.3
2019-Sep-14 02:45 213 0 gusting 11 8.3
2019-Sep-14 02:40 245 2 gusting 11 8.3
2019-Sep-14 02:35 236 1 gusting 7 8.3
2019-Sep-14 02:30 238 0 gusting 13 8.3
2019-Sep-14 02:25 235 2 gusting 13 8.9
2019-Sep-14 02:20 242 1 gusting 10 8.9
2019-Sep-14 02:15 196 1 gusting 7 8.9
2019-Sep-14 02:10 248 1 gusting 7 8.9
2019-Sep-14 02:05 244 1 gusting 6 8.9
2019-Sep-14 02:00 238 0 gusting 4 8.9
2019-Sep-14 01:55 253 1 gusting 4 8.9
2019-Sep-14 01:50 258 0 gusting 6 8.9
2019-Sep-14 01:45 254 1 gusting 12 8.9
2019-Sep-14 01:40 251 2 gusting 12 9.4
2019-Sep-14 01:35 225 0 gusting 8 9.4
2019-Sep-14 01:30 224 1 gusting 8 9.4
2019-Sep-14 01:25 219 1 gusting 3 9.4
2019-Sep-14 01:20 234 0 gusting 5 9.4
2019-Sep-14 01:15 235 0 gusting 12 9.4
2019-Sep-14 01:10 236 4 gusting 12 9.4
2019-Sep-14 01:06 244 1 gusting 11 9.4
2019-Sep-14 01:00 240 1 gusting 8 9.4
2019-Sep-14 00:55 261 1 gusting 6 9.4
2019-Sep-14 00:50 256 1 gusting 10 9.4
2019-Sep-14 00:45 257 0 gusting 10 9.4
2019-Sep-14 00:40 241 1 gusting 12 9.4
2019-Sep-14 00:35 213 0 gusting 12 9.4
2019-Sep-14 00:30 281 0 gusting 10 9.4
2019-Sep-14 00:25 205 0 gusting 10 8.9
2019-Sep-14 00:20 250 0 gusting 6 8.9
2019-Sep-14 00:15 237 2 gusting 6 8.9
2019-Sep-14 00:10 223 1 gusting 5 8.9
2019-Sep-14 00:05 211 0 gusting 5 8.9
2019-Sep-14 00:00 214 0 gusting 1 8.9
2019-Sep-13 23:55 360 0 gusting 1 8.9
2019-Sep-13 23:50 230 8.9
2019-Sep-13 23:45 239 9.4
2019-Sep-13 23:40 239 9.4
2019-Sep-13 23:35 231 9.4
2019-Sep-13 23:30 242 9.4
2019-Sep-13 23:20 217 10.0
2019-Sep-13 23:15 213 10.0
2019-Sep-13 23:10 226 10.0
2019-Sep-13 23:05 219 10.0
2019-Sep-13 23:00 221 0 gusting 2 10.0
2019-Sep-13 22:55 218 0 gusting 2 10.0
2019-Sep-13 22:50 222 0 gusting 4 10.0
2019-Sep-13 22:45 210 0 gusting 4 10.0
2019-Sep-13 22:40 223 0 gusting 4 10.0
2019-Sep-13 22:35 214 10.0
2019-Sep-13 22:30 360 1 gusting 4 10.0
2019-Sep-13 22:25 214 1 gusting 5 10.0
2019-Sep-13 22:20 218 1 gusting 5 10.6
2019-Sep-13 22:15 215 0 gusting 3 10.6
2019-Sep-13 22:10 205 0 gusting 3 10.6
2019-Sep-13 22:05 209 0 gusting 3 10.6
2019-Sep-13 22:00 228 1 gusting 5 10.6
2019-Sep-13 21:55 233 0 gusting 5 10.6
2019-Sep-13 21:50 360 0 gusting 3 10.6
2019-Sep-13 21:45 222 1 gusting 4 10.6
2019-Sep-13 21:40 217 0 gusting 2 10.6
2019-Sep-13 21:35 245 0 gusting 3 10.6
2019-Sep-13 21:30 217 0 gusting 3 10.6
2019-Sep-13 21:25 232 10.6
2019-Sep-13 21:20 206 0 gusting 3 10.6
2019-Sep-13 21:15 205 11.1
2019-Sep-13 21:10 222 0 gusting 2 11.1
2019-Sep-13 21:05 228 0 gusting 3 11.1
2019-Sep-13 21:00 246 0 gusting 3 11.1
2019-Sep-13 20:55 218 0 gusting 3 11.1
2019-Sep-13 20:50 215 1 gusting 4 11.1
2019-Sep-13 20:45 228 0 gusting 4 11.1
2019-Sep-13 20:40 217 1 gusting 5 11.1
2019-Sep-13 20:35 214 1 gusting 6 11.1
2019-Sep-13 20:30 225 2 gusting 6 11.7
2019-Sep-13 20:25 256 1 gusting 5 11.7
2019-Sep-13 20:20 233 1 gusting 9 11.7
2019-Sep-13 20:15 221 2 gusting 9 11.7
2019-Sep-13 20:10 199 0 gusting 7 11.7
2019-Sep-13 20:05 202 1 gusting 10 11.7
2019-Sep-13 20:00 200 2 gusting 10 11.7
2019-Sep-13 19:55 234 1 gusting 6 11.7
2019-Sep-13 19:50 240 1 gusting 13 11.7
2019-Sep-13 19:45 226 2 gusting 8 11.7
2019-Sep-13 19:40 225 2 gusting 9 11.7
2019-Sep-13 19:35 253 2 gusting 9 11.7
2019-Sep-13 19:30 209 2 gusting 10 11.7
2019-Sep-13 19:25 212 2 gusting 10 11.7
2019-Sep-13 19:20 236 4 gusting 8 11.7
2019-Sep-13 19:15 192 1 gusting 4 11.7
2019-Sep-13 19:10 207 1 gusting 5 11.7
2019-Sep-13 19:06 211 1 gusting 5 11.7
2019-Sep-13 19:00 223 0 gusting 3 11.7
2019-Sep-13 18:55 241 1 gusting 9 11.7
2019-Sep-13 18:50 360 1 gusting 4 11.7
2019-Sep-13 18:45 220 0 gusting 5 11.7
2019-Sep-13 18:40 234 1 gusting 5 11.7
2019-Sep-13 18:35 202 0 gusting 3 11.7
2019-Sep-13 18:30 360 0 gusting 3 11.7
2019-Sep-13 18:25 218 0 gusting 4 11.7
2019-Sep-13 18:20 360 0 gusting 4 11.7
2019-Sep-13 18:15 225 0 gusting 6 11.7
2019-Sep-13 18:10 221 1 gusting 4 11.7
2019-Sep-13 18:05 210 0 gusting 6 11.7
2019-Sep-13 18:00 360 2 gusting 6 11.7
2019-Sep-13 17:55 360 1 gusting 6 12.2
2019-Sep-13 17:50 213 1 gusting 5 12.2
2019-Sep-13 17:45 253 0 gusting 3 12.2
2019-Sep-13 17:40 218 0 gusting 3 12.2
2019-Sep-13 17:35 222 0 gusting 3 12.2
2019-Sep-13 17:30 207 1 gusting 3 12.8
2019-Sep-13 17:25 218 0 gusting 2 12.8
2019-Sep-13 17:20 219 0 gusting 2 12.8
2019-Sep-13 17:15 226 13.3
2019-Sep-13 17:10 246 1 gusting 3 13.3
2019-Sep-13 17:05 235 1 gusting 3 13.3
2019-Sep-13 17:00 234 0 gusting 4 13.9
2019-Sep-13 16:55 236 0 gusting 4 13.9
2019-Sep-13 16:50 255 1 gusting 6 13.9
2019-Sep-13 16:45 275 2 gusting 10 14.4
2019-Sep-13 16:40 252 2 gusting 10 14.4
2019-Sep-13 16:35 263 2 gusting 8 14.4
2019-Sep-13 16:30 252 2 gusting 11 14.4
2019-Sep-13 16:25 251 4 gusting 9 14.4
2019-Sep-13 16:20 239 3 gusting 9 15.0
2019-Sep-13 16:15 248 3 gusting 10 15.0
2019-Sep-13 16:10 272 4 gusting 11 15.0
2019-Sep-13 16:06 236 4 gusting 18 15.0
2019-Sep-13 16:00 250 8 gusting 18 15.6
2019-Sep-13 15:55 287 8 gusting 15 15.6
2019-Sep-13 15:50 292 3 gusting 15 15.6
2019-Sep-13 15:45 296 6 gusting 17 15.6
2019-Sep-13 15:40 267 9 gusting 17 15.6
2019-Sep-13 15:35 300 4 gusting 12 15.6
2019-Sep-13 15:30 284 5 gusting 13 15.6
2019-Sep-13 15:25 292 5 gusting 17 15.6
2019-Sep-13 15:20 267 7 gusting 20 15.6
2019-Sep-13 15:15 265 3 gusting 20 15.6
2019-Sep-13 15:10 294 7 gusting 14 15.6
2019-Sep-13 15:05 272 3 gusting 14 15.6
2019-Sep-13 15:00 300 5 gusting 13 15.6
2019-Sep-13 14:55 250 3 gusting 15 15.6
2019-Sep-13 14:50 279 6 gusting 20 15.6
2019-Sep-13 14:45 296 9 gusting 20 15.6
2019-Sep-13 14:40 258 7 gusting 17 15.6
2019-Sep-13 14:35 248 9 gusting 18 15.6
2019-Sep-13 14:30 207 9 gusting 20 15.6
2019-Sep-13 14:25 253 8 gusting 19 15.6
2019-Sep-13 14:20 242 9 gusting 19 15.6
2019-Sep-13 14:15 288 12 gusting 19 15.6
2019-Sep-13 14:10 305 6 gusting 19 15.6
2019-Sep-13 14:06 276 7 gusting 16 16.1
2019-Sep-13 14:00 255 3 gusting 14 16.1
2019-Sep-13 13:55 249 7 gusting 14 16.1
2019-Sep-13 13:50 309 5 gusting 17 16.1
2019-Sep-13 13:45 242 8 gusting 17 16.1
2019-Sep-13 13:40 235 8 gusting 19 16.1
2019-Sep-13 13:35 278 11 gusting 19 16.1
2019-Sep-13 13:30 188 10 gusting 23 16.1
2019-Sep-13 13:25 253 9 gusting 23 16.7
2019-Sep-13 13:20 242 10 gusting 21 16.7
2019-Sep-13 13:15 248 11 gusting 21 16.7
2019-Sep-13 13:10 200 8 gusting 18 16.1
2019-Sep-13 13:05 298 4 gusting 13 16.1
2019-Sep-13 13:00 264 3 gusting 18 16.1
2019-Sep-13 12:55 308 9 gusting 18 16.7
2019-Sep-13 12:50 275 6 gusting 14 16.7
2019-Sep-13 12:45 269 6 gusting 14 16.7
2019-Sep-13 12:40 278 5 gusting 14 16.1
2019-Sep-13 12:35 321 6 gusting 19 16.1
2019-Sep-13 12:30 279 5 gusting 19 16.1
2019-Sep-13 12:25 253 6 gusting 19 16.1
2019-Sep-13 12:20 339 11 gusting 19 16.1
2019-Sep-13 12:15 250 6 gusting 18 16.1
2019-Sep-13 12:10 294 5 gusting 16 16.1
2019-Sep-13 12:06 360 7 gusting 21 16.1
2019-Sep-13 12:00 288 4 gusting 21 16.1